Time,TemperatureF,DewpointF,PressureIn,WindDirection,WindDirectionDegrees,WindSpeedMPH,WindSpeedGustMPH,Humidity,HourlyPrecipIn,Conditions,Clouds,dailyrainin,SoftwareType,DateUTC
2013-04-12 00:02:00,55.3,55.0,29.58,ENE,78,8.0,16.0,98,0.27,,,0.61,weatherlink.com 1.10,2013-04-12 04:02:00,
2013-04-12 00:17:00,55.4,55.0,29.57,NNE,26,3.0,16.0,98,0.29,,,0.67,weatherlink.com 1.10,2013-04-12 04:17:00,
2013-04-12 00:32:00,55.2,55.0,29.56,ENE,74,11.0,14.0,98,0.30,,,0.75,weatherlink.com 1.10,2013-04-12 04:32:00,
2013-04-12 00:47:00,55.4,55.0,29.56,ENE,57,7.0,15.0,98,0.30,,,0.82,weatherlink.com 1.10,2013-04-12 04:47:00,
2013-04-12 01:02:00,55.4,55.0,29.57,NE,36,4.0,18.0,98,0.29,,,0.90,weatherlink.com 1.10,2013-04-12 05:02:00,
2013-04-12 01:17:00,52.3,52.0,29.59,ENE,58,5.0,17.0,97,0.30,,,0.02,weatherlink.com 1.10,2013-04-12 05:17:00,
2013-04-12 01:32:00,51.8,51.0,29.58,East,85,3.0,9.0,98,0.32,,,0.11,weatherlink.com 1.10,2013-04-12 05:32:00,
2013-04-12 02:02:00,50.6,50.0,29.58,SSW,197,0.0,2.0,97,0.35,,,0.29,weatherlink.com 1.10,2013-04-12 06:02:00,
2013-04-12 02:17:00,50.6,50.0,29.57,NE,40,2.0,5.0,98,0.34,,,0.36,weatherlink.com 1.10,2013-04-12 06:17:00,
2013-04-12 02:32:00,50.5,50.0,29.56,West,263,3.0,5.0,98,0.31,,,0.43,weatherlink.com 1.10,2013-04-12 06:32:00,
2013-04-12 02:47:00,50.7,50.0,29.56,ENE,65,3.0,13.0,98,0.28,,,0.49,weatherlink.com 1.10,2013-04-12 06:47:00,
2013-04-12 03:02:00,50.6,50.0,29.55,East,81,7.0,14.0,98,0.25,,,0.54,weatherlink.com 1.10,2013-04-12 07:02:00,
2013-04-12 03:32:00,50.2,50.0,29.51,ENE,74,5.0,12.0,98,0.21,,,0.64,weatherlink.com 1.10,2013-04-12 07:32:00,
2013-04-12 03:47:00,50.1,50.0,29.50,ENE,59,9.0,15.0,98,0.18,,,0.67,weatherlink.com 1.10,2013-04-12 07:47:00,
2013-04-12 04:02:00,50.1,50.0,29.50,ENE,58,5.0,16.0,98,0.14,,,0.68,weatherlink.com 1.10,2013-04-12 08:02:00,
2013-04-12 04:17:00,50.2,50.0,29.50,East,86,9.0,25.0,98,0.09,,,0.68,weatherlink.com 1.10,2013-04-12 08:17:00,
2013-04-12 04:32:00,50.3,50.0,29.51,East,81,6.0,10.0,98,0.03,,,0.68,weatherlink.com 1.10,2013-04-12 08:32:00,
2013-04-12 04:47:00,50.3,50.0,29.51,ENE,68,4.0,12.0,98,0.01,,,0.68,weatherlink.com 1.10,2013-04-12 08:47:00,
2013-04-12 05:02:00,50.3,50.0,29.50,ENE,66,5.0,14.0,98,0.00,,,0.68,weatherlink.com 1.10,2013-04-12 09:02:00,
2013-04-12 05:17:00,50.5,50.0,29.50,ENE,61,3.0,12.0,98,0.01,,,0.69,weatherlink.com 1.10,2013-04-12 09:17:00,
2013-04-12 05:32:00,50.6,50.0,29.50,ENE,70,3.0,15.0,98,0.04,,,0.72,weatherlink.com 1.10,2013-04-12 09:32:00,
2013-04-12 05:47:00,50.5,50.0,29.50,ENE,62,2.0,8.0,98,0.08,,,0.76,weatherlink.com 1.10,2013-04-12 09:47:00,
2013-04-12 06:02:00,50.6,50.0,29.49,ENE,58,5.0,11.0,98,0.12,,,0.80,weatherlink.com 1.10,2013-04-12 10:02:00,
2013-04-12 06:17:00,50.9,50.0,29.50,NE,49,4.0,10.0,98,0.15,,,0.84,weatherlink.com 1.10,2013-04-12 10:17:00,
2013-04-12 06:32:00,51.0,51.0,29.50,ENE,68,3.0,7.0,98,0.13,,,0.85,weatherlink.com 1.10,2013-04-12 10:32:00,
2013-04-12 06:47:00,51.1,51.0,29.49,ENE,61,4.0,10.0,98,0.10,,,0.86,weatherlink.com 1.10,2013-04-12 10:47:00,
2013-04-12 07:02:00,51.3,51.0,29.51,ENE,60,3.0,14.0,98,0.06,,,0.87,weatherlink.com 1.10,2013-04-12 11:02:00,
2013-04-12 07:17:00,51.1,51.0,29.51,NE,44,10.0,17.0,98,0.03,,,0.87,weatherlink.com 1.10,2013-04-12 11:17:00,
2013-04-12 07:32:00,50.5,50.0,29.52,NE,54,5.0,11.0,98,0.02,,,0.87,weatherlink.com 1.10,2013-04-12 11:32:00,
2013-04-12 07:47:00,50.4,50.0,29.52,NE,36,5.0,14.0,98,0.01,,,0.87,weatherlink.com 1.10,2013-04-12 11:47:00,
2013-04-12 08:02:00,50.1,50.0,29.54,NE,49,1.0,7.0,98,0.00,,,0.87,weatherlink.com 1.10,2013-04-12 12:02:00,
2013-04-12 08:17:00,50.1,50.0,29.54,NNW,329,2.0,6.0,98,0.00,,,0.87,weatherlink.com 1.10,2013-04-12 12:17:00,
2013-04-12 08:47:00,49.8,49.0,29.56,West,280,1.0,5.0,98,0.00,,,0.87,weatherlink.com 1.10,2013-04-12 12:47:00,
2013-04-12 09:02:00,49.5,49.0,29.56,NW,314,5.0,8.0,98,0.00,,,0.87,weatherlink.com 1.10,2013-04-12 13:02:00,
2013-04-12 09:17:00,48.6,48.0,29.57,NE,49,0.0,3.0,98,0.01,,,0.88,weatherlink.com 1.10,2013-04-12 13:17:00,
2013-04-12 09:32:00,47.5,47.0,29.58,NNW,346,0.0,5.0,98,0.02,,,0.89,weatherlink.com 1.10,2013-04-12 13:32:00,
2013-04-12 09:47:00,47.0,47.0,29.58,NNW,335,0.0,4.0,98,0.02,,,0.89,weatherlink.com 1.10,2013-04-12 13:47:00,
2013-04-12 10:03:00,46.8,46.0,29.59,North,5,2.0,5.0,98,0.03,,,0.90,weatherlink.com 1.10,2013-04-12 14:03:00,
2013-04-12 10:17:00,47.0,47.0,29.59,WSW,240,0.0,4.0,98,0.02,,,0.90,weatherlink.com 1.10,2013-04-12 14:17:00,
2013-04-12 10:33:00,46.5,46.0,29.60,SSW,209,4.0,7.0,98,0.01,,,0.90,weatherlink.com 1.10,2013-04-12 14:33:00,
2013-04-12 10:48:00,46.5,46.0,29.60,NW,309,2.0,6.0,98,0.01,,,0.90,weatherlink.com 1.10,2013-04-12 14:48:00,
2013-04-12 11:03:00,47.6,47.0,29.60,WNW,291,1.0,7.0,98,0.00,,,0.90,weatherlink.com 1.10,2013-04-12 15:03:00,
2013-04-12 11:18:00,48.5,48.0,29.60,NW,318,1.0,5.0,98,0.00,,,0.90,weatherlink.com 1.10,2013-04-12 15:18:00,
2013-04-12 11:33:00,48.8,48.0,29.60,WNW,287,2.0,5.0,98,0.00,,,0.90,weatherlink.com 1.10,2013-04-12 15:33:00,
2013-04-12 11:48:00,49.1,49.0,29.60,WNW,299,1.0,6.0,98,0.00,,,0.90,weatherlink.com 1.10,2013-04-12 15:48:00,
2013-04-12 12:03:00,49.9,49.0,29.60,NW,306,2.0,9.0,98,0.00,,,0.90,weatherlink.com 1.10,2013-04-12 16:03:00,
2013-04-12 12:18:00,50.4,50.0,29.61,NNW,338,1.0,6.0,98,0.00,,,0.90,weatherlink.com 1.10,2013-04-12 16:18:00,
2013-04-12 12:33:00,51.3,50.0,29.60,NNE,20,3.0,9.0,95,0.00,,,0.90,weatherlink.com 1.10,2013-04-12 16:33:00,
2013-04-12 12:48:00,52.4,49.0,29.61,East,92,8.0,9.0,87,0.00,,,0.90,weatherlink.com 1.10,2013-04-12 16:48:00,
2013-04-12 13:03:00,53.2,48.0,29.61,East,86,5.0,10.0,83,0.00,,,0.90,weatherlink.com 1.10,2013-04-12 17:03:00,
2013-04-12 13:33:00,54.1,48.0,29.61,NE,51,3.0,9.0,79,0.00,,,0.90,weatherlink.com 1.10,2013-04-12 17:33:00,
2013-04-12 13:48:00,54.9,47.0,29.61,NE,55,3.0,10.0,75,0.00,,,0.90,weatherlink.com 1.10,2013-04-12 17:48:00,
2013-04-12 14:03:00,56.0,48.0,29.61,NW,306,3.0,7.0,75,0.00,,,0.90,weatherlink.com 1.10,2013-04-12 18:03:00,
2013-04-12 14:18:00,55.1,49.0,29.61,SW,221,0.0,6.0,79,0.00,,,0.90,weatherlink.com 1.10,2013-04-12 18:18:00,
2013-04-12 15:33:00,49.8,44.0,29.61,West,281,4.0,11.0,81,0.00,,,0.90,weatherlink.com 1.10,2013-04-12 19:33:00,
2013-04-12 15:48:00,50.9,44.0,29.62,WNW,287,7.0,10.0,77,0.00,,,0.90,weatherlink.com 1.10,2013-04-12 19:48:00,
2013-04-12 16:03:00,49.8,41.0,29.62,SW,227,5.0,15.0,73,0.00,,,0.90,weatherlink.com 1.10,2013-04-12 20:03:00,
2013-04-12 16:18:00,49.9,40.0,29.63,WNW,301,6.0,13.0,68,0.00,,,0.90,weatherlink.com 1.10,2013-04-12 20:18:00,
2013-04-12 16:33:00,50.9,38.0,29.63,NW,306,0.0,9.0,62,0.00,,,0.90,weatherlink.com 1.10,2013-04-12 20:33:00,
2013-04-12 16:48:00,51.4,36.0,29.63,NNW,330,2.0,15.0,56,0.00,,,0.90,weatherlink.com 1.10,2013-04-12 20:48:00,
2013-04-12 17:03:00,51.6,35.0,29.63,WSW,244,5.0,12.0,54,0.00,,,0.90,weatherlink.com 1.10,2013-04-12 21:03:00,
2013-04-12 17:18:00,51.5,37.0,29.64,NW,321,1.0,9.0,57,0.00,,,0.90,weatherlink.com 1.10,2013-04-12 21:18:00,
2013-04-12 17:33:00,50.9,38.0,29.64,North,349,5.0,13.0,61,0.00,,,0.90,weatherlink.com 1.10,2013-04-12 21:33:00,
2013-04-12 17:48:00,50.1,38.0,29.64,SSE,164,2.0,16.0,63,0.00,,,0.90,weatherlink.com 1.10,2013-04-12 21:48:00,
2013-04-12 18:03:00,50.1,38.0,29.64,WNW,290,0.0,9.0,64,0.00,,,0.90,weatherlink.com 1.10,2013-04-12 22:03:00,
2013-04-12 18:18:00,49.4,37.0,29.64,West,263,5.0,11.0,63,0.00,,,0.90,weatherlink.com 1.10,2013-04-12 22:18:00,
2013-04-12 18:33:00,48.2,36.0,29.63,SSW,205,8.0,15.0,62,0.00,,,0.90,weatherlink.com 1.10,2013-04-12 22:33:00,
2013-04-12 18:48:00,46.9,34.0,29.64,NNE,12,6.0,9.0,62,0.00,,,0.90,weatherlink.com 1.10,2013-04-12 22:48:00,
2013-04-12 19:03:00,45.7,33.0,29.64,North,355,7.0,12.0,62,0.00,,,0.90,weatherlink.com 1.10,2013-04-12 23:03:00,
2013-04-12 19:18:00,45.0,33.0,29.64,NNW,346,8.0,12.0,63,0.00,,,0.90,weatherlink.com 1.10,2013-04-12 23:18:00,
2013-04-12 19:33:00,44.3,34.0,29.65,NNW,341,4.0,11.0,67,0.00,,,0.90,weatherlink.com 1.10,2013-04-12 23:33:00,
2013-04-12 19:48:00,43.4,35.0,29.65,NW,311,6.0,14.0,71,0.00,,,0.90,weatherlink.com 1.10,2013-04-12 23:48:00,
2013-04-12 20:04:00,42.5,35.0,29.65,West,274,2.0,17.0,76,0.00,,,0.90,weatherlink.com 1.10,2013-04-13 00:04:00,
2013-04-12 20:19:00,41.8,36.0,29.65,NNE,25,4.0,11.0,79,0.00,,,0.90,weatherlink.com 1.10,2013-04-13 00:19:00,
2013-04-12 20:34:00,41.1,36.0,29.64,NNW,341,7.0,10.0,82,0.00,,,0.90,weatherlink.com 1.10,2013-04-13 00:34:00,
2013-04-12 20:49:00,40.7,36.0,29.65,NNW,328,5.0,14.0,84,0.00,,,0.90,weatherlink.com 1.10,2013-04-13 00:49:00,
2013-04-12 21:04:00,40.3,36.0,29.67,WNW,300,3.0,15.0,85,0.00,,,0.90,weatherlink.com 1.10,2013-04-13 01:04:00,
2013-04-12 21:19:00,40.1,36.0,29.68,NW,309,2.0,18.0,84,0.00,,,0.90,weatherlink.com 1.10,2013-04-13 01:19:00,
2013-04-12 21:34:00,39.8,35.0,29.68,West,264,2.0,16.0,83,0.00,,,0.90,weatherlink.com 1.10,2013-04-13 01:34:00,
2013-04-12 21:49:00,39.6,35.0,29.70,WSW,248,6.0,13.0,83,0.00,,,0.90,weatherlink.com 1.10,2013-04-13 01:49:00,
2013-04-12 22:04:00,39.5,35.0,29.71,West,269,3.0,13.0,83,0.00,,,0.90,weatherlink.com 1.10,2013-04-13 02:04:00,
2013-04-12 22:19:00,39.3,35.0,29.73,ENE,69,1.0,7.0,83,0.00,,,0.90,weatherlink.com 1.10,2013-04-13 02:19:00,
2013-04-12 22:34:00,39.2,35.0,29.74,NW,311,4.0,14.0,83,0.00,,,0.90,weatherlink.com 1.10,2013-04-13 02:34:00,
2013-04-12 22:49:00,39.2,34.0,29.73,NW,326,7.0,15.0,81,0.00,,,0.90,weatherlink.com 1.10,2013-04-13 02:49:00,
2013-04-12 23:04:00,39.1,33.0,29.73,NW,305,3.0,14.0,80,0.00,,,0.90,weatherlink.com 1.10,2013-04-13 03:04:00,
2013-04-12 23:19:00,39.1,33.0,29.73,NNE,22,3.0,13.0,80,0.00,,,0.90,weatherlink.com 1.10,2013-04-13 03:19:00,
2013-04-12 23:34:00,39.0,33.0,29.73,WNW,291,6.0,18.0,79,0.00,,,0.90,weatherlink.com 1.10,2013-04-13 03:34:00,
2013-04-12 23:49:00,38.7,33.0,29.73,NW,311,8.0,17.0,80,0.00,,,0.90,weatherlink.com 1.10,2013-04-13 03:49:00,